Regional Weather Roundup
Issued by NWS

Home | Current Version | Previous Version | Graphics & Text | Print | Product List | Glossary On
Versions: 1 2 3 4 5 6 7 8 9 10 11 12 13 14 15 16 17 18 19 20 21 22 23 24 25 26 27 28 29 30 31 32 33 34 35 36 37 38 39 40 41 42 43 44 45 46 47 48 49 50
000
ASUS43 KFSD 282302
RWRSD

WEATHER ROUNDUP FOR SOUTH DAKOTA
NATIONAL WEATHER SERVICE SIOUX FALLS SD
600 PM CDT SAT MAY 28 2016

NOTE: "FAIR" INDICATES FEW OR NO CLOUDS BELOW 12,000 FEET WITH NO
SIGNIFICANT WEATHER AND/OR OBSTRUCTIONS TO VISIBILITY.


SDZ001>005-009-010-012>017-290000-
NORTHWEST AND NORTH CENTRAL SOUTH DAKOTA

CITY           SKY/WX    TMP DP  RH WIND       PRES   REMARKS
BUFFALO          N/A     69  49  48 NW14      29.86R
FAITH            N/A     63  53  70 NE10      29.90S
MOBRIDGE       PTSUNNY   75  49  39 N6        29.83S
$$

SDZ012>016-024>037-041>051-057-063-072>074-290000-
SOUTHWEST AND SOUTH CENTRAL SOUTH DAKOTA

CITY           SKY/WX    TMP DP  RH WIND       PRES   REMARKS
RAPID CTY ARPT CLOUDY    66  51  58 W10       29.94S
PIERRE         CLOUDY    72  54  53 E3        29.85R
CUSTER         TSTM      49  45  86 CALM      30.05R
ELLSWORTH AFB  CLOUDY    65  51  59 SW7       29.93S
PHILIP         PTSUNNY   71  54  54 NW22      29.89R
PINE RIDGE     CLOUDY    68  47  46 N9        29.93R
WINNER         FAIR      74  55  51 N7        29.88S
$$

SDZ004>011-016>023-039-040-290000-
NORTHEAST SOUTH DAKOTA

CITY           SKY/WX    TMP DP  RH WIND       PRES   REMARKS
ABERDEEN       CLOUDY    69  56  62 E8        29.84S
WATERTOWN      CLOUDY    65  57  75 N6        29.83R
BROOKINGS      PTSUNNY   63  58  83 N7        29.83R
SISSETON         N/A     69  54  58 NE6       29.80R
$$

SDZ017-020-022-023-036>040-048>070-290000-
SOUTHEAST SOUTH DAKOTA

CITY           SKY/WX    TMP DP  RH WIND       PRES   REMARKS
SIOUX FALLS    LGT RAIN  64  61  90 N8        29.81R
HURON          CLOUDY    66  59  78 NE6       29.85R
MITCHELL       LGT RAIN  62  59  90 NW6       29.86S
YANKTON        CLOUDY    63  55  77 NW17G23   29.83R
$$

ABBREVIATIONS USED IN REMARKS
   TC - TEMPERATURE IN CELSIUS
  WCI - WIND CHILL INDEX
   HX - HEAT INDEX
  VSB - VISIBILITY





USA.gov is the U.S. government's official web portal to all federal, state and local government web resources and services.